Theta_e
317 317 316 315 314 314 313 313 313 313 313 313 313 313 313 313 313 313 313 313 314 315 315 315 315 315 315 316 316 317 317 309 305 297 296 296 306 322 322 323 322 323 319 296 295 295 294 293 297 295 293 294 292 293 293 294 291 292 287 281 281 280 279 282 284 283 283 285 287 287 288 289 288 288 292 291 290 289 290 290 291 292 291 292 292 292 295 298
318 318 317 316 316 315 314 314 313 313 313 313 313 313 313 313 312 313 313 313 314 314 315 314 314 315 315 315 316 317 313 306 299 297 298 310 317 324 323 324 322 321 311 298 293 291 292 292 294 291 292 292 292 292 295 293 294 288 281 279 283 281 285 286 285 285 284 286 284 285 287 288 290 287 290 290 287 286 288 289 288 291 294 295 294 294 294 301
319 318 317 317 316 316 316 315 314 314 313 313 313 313 313 313 313 312 312 313 313 313 314 314 314 314 314 315 315 317 308 299 294 293 296 316 324 324 324 323 322 320 299 297 293 290 292 290 292 291 289 290 288 291 292 290 292 287 284 281 282 283 284 285 284 286 286 287 285 286 287 286 288 289 292 290 289 286 287 289 287 287 291 292 293 293 294 297
319 318 318 317 317 316 316 316 317 316 316 315 313 313 313 313 313 312 312 313 313 313 313 314 314 314 314 314 316 311 300 295 289 293 302 321 323 323 323 322 319 309 300 298 294 293 291 291 289 290 288 290 285 289 290 291 290 287 285 282 284 282 285 286 286 287 286 286 287 286 285 285 286 288 289 286 287 288 289 291 291 289 289 290 291 291 291 294
320 319 319 318 317 317 317 316 316 316 316 316 315 314 314 313 313 313 313 313 313 313 313 313 313 314 314 315 316 304 297 286 290 299 304 321 323 322 322 322 316 300 301 298 298 295 293 292 290 289 288 285 286 289 287 288 289 287 287 287 283 284 285 287 285 286 286 286 287 284 287 288 287 288 288 288 287 289 290 287 290 292 293 290 291 291 292 295
320 320 319 318 318 317 317 316 316 316 316 315 314 315 314 315 315 314 313 313 313 313 313 313 313 313 314 315 308 301 288 281 295 297 316 322 320 321 322 321 316 302 301 296 295 293 296 294 292 290 287 285 286 287 284 289 290 286 287 287 288 284 286 287 285 287 287 287 286 286 287 288 287 288 286 288 290 293 294 288 287 290 291 292 291 291 292 295
320 320 320 319 318 317 317 317 316 316 316 315 315 315 315 315 315 314 314 313 313 313 312 313 313 313 313 313 299 295 290 289 293 299 321 321 321 321 322 321 314 300 297 296 294 294 290 290 290 286 284 285 283 285 285 289 290 288 286 284 287 286 288 288 289 287 286 287 287 287 289 289 287 288 286 287 293 295 296 291 289 287 289 291 290 291 294 296
321 321 320 320 319 318 317 317 316 316 316 316 315 315 315 315 315 314 314 313 312 312 313 312 312 313 313 301 292 287 289 291 294 297 323 321 311 316 311 300 299 298 297 295 294 291 290 290 289 286 286 284 282 287 288 289 289 288 288 287 288 286 286 286 286 286 286 286 287 287 289 291 289 288 288 291 293 294 295 294 295 292 290 289 289 291 292 294
322 321 321 320 319 319 318 317 317 316 316 316 316 315 315 315 314 315 314 314 313 312 312 312 312 312 312 297 290 286 288 295 298 301 311 303 296 297 298 299 298 298 296 296 295 292 292 289 289 287 285 285 286 287 287 288 285 289 291 288 286 287 288 288 288 288 288 288 287 288 289 290 288 289 290 294 295 297 295 294 294 292 291 291 292 292 292 293
322 322 321 321 320 320 319 318 318 317 317 317 316 316 316 315 314 314 315 315 314 313 312 312 312 312 301 296 290 283 292 297 299 305 302 296 295 297 298 297 298 298 299 297 293 293 292 288 291 289 287 288 287 286 285 287 284 287 286 286 288 290 290 290 290 289 288 288 287 290 291 288 288 289 288 294 294 292 293 293 291 290 291 292 292 293 293 293
318 319 321 321 320 320 320 319 319 318 318 317 317 317 316 316 315 315 315 315 315 314 312 312 314 306 296 294 288 286 296 298 299 299 296 295 296 296 296 298 297 298 297 295 295 294 293 290 290 289 291 287 287 286 288 288 288 288 289 288 288 289 288 288 286 287 287 290 288 290 289 287 287 286 289 295 288 290 289 289 288 288 290 291 291 291 292 293
317 317 317 318 320 320 320 320 320 319 318 318 318 317 317 316 315 315 315 315 315 315 313 311 312 307 301 296 291 291 297 299 298 296 296 297 295 295 296 297 298 297 298 295 295 295 294 293 290 291 285 289 285 286 286 288 290 288 288 288 286 286 289 287 288 287 288 288 287 289 286 285 286 286 293 295 293 291 290 290 288 289 290 290 291 291 291 292
318 317 317 317 316 316 318 320 320 320 319 319 318 318 317 317 316 316 316 315 315 315 314 312 306 304 299 289 293 299 297 300 295 297 298 296 297 297 297 296 298 297 298 298 296 296 293 292 292 290 288 286 284 285 287 290 288 288 286 284 287 285 285 286 286 285 287 288 287 287 285 287 286 291 293 295 292 291 289 290 291 291 290 290 291 292 292 292
317 317 317 317 317 316 315 315 318 320 320 319 319 318 318 317 317 317 316 315 316 315 314 313 304 297 291 287 292 296 299 298 297 298 297 299 298 298 297 298 297 296 296 298 295 294 294 292 293 292 292 291 288 292 290 284 285 285 284 284 282 282 282 285 287 285 286 288 287 288 284 290 288 289 293 294 292 290 290 291 291 290 290 291 291 291 292 293
315 315 315 316 316 317 316 316 316 316 319 320 319 318 318 317 317 317 317 316 316 316 314 310 303 297 288 291 296 297 311 298 297 295 298 296 295 295 297 298 298 297 295 296 296 295 294 294 293 291 287 291 290 289 284 280 280 280 283 281 278 281 282 283 286 286 288 288 287 286 284 287 291 290 291 289 289 289 290 290 291 290 290 290 290 291 291 293
314 313 313 313 315 316 317 317 316 316 316 318 319 318 318 318 317 317 317 316 316 315 308 304 302 296 285 284 291 307 298 296 295 297 296 296 295 293 294 295 296 296 295 296 296 296 294 292 288 286 289 288 287 280 280 279 280 278 282 280 282 279 281 284 285 285 287 287 288 286 286 286 289 286 287 287 288 287 288 289 289 289 290 290 289 290 291 292
313 312 312 312 312 314 316 316 317 316 315 316 318 319 319 318 318 317 315 314 311 310 305 300 301 296 284 292 297 293 293 295 297 297 297 297 294 295 297 295 295 295 294 295 295 295 293 291 288 288 283 282 282 283 281 277 279 280 280 280 280 281 281 282 283 284 284 286 285 286 282 286 290 288 288 286 288 286 286 289 290 291 291 291 290 289 290 291
311 311 311 312 312 312 313 315 316 316 316 315 317 318 316 318 314 311 309 306 305 304 302 301 297 289 290 293 290 291 295 294 296 296 297 297 297 297 295 293 292 292 293 290 292 290 291 286 285 282 283 284 283 282 280 279 282 278 279 278 282 280 281 284 282 284 286 286 284 283 283 286 289 291 291 291 287 289 290 291 292 292 292 292 292 291 291 291
311 311 310 311 311 311 312 312 314 315 316 316 317 319 317 312 306 305 302 301 294 290 290 290 288 286 292 288 290 291 294 296 296 297 296 298 298 296 296 294 294 292 288 286 286 288 285 284 285 283 281 282 284 285 284 286 284 282 281 281 279 281 281 282 283 283 287 283 283 283 284 287 289 290 292 289 288 289 290 291 290 291 291 291 291 292 292 292
311 310 310 310 311 310 311 312 312 313 315 313 310 307 305 300 297 296 298 297 292 294 296 296 294 292 290 288 291 294 296 296 294 294 296 297 299 296 293 292 289 287 285 284 285 285 287 282 281 282 284 286 287 287 287 286 283 283 280 281 281 281 282 283 280 282 283 283 282 285 284 285 286 288 289 290 287 287 289 289 290 291 291 291 290 291 291 291
310 310 310 310 310 310 311 311 311 312 315 313 308 304 298 299 294 294 292 294 297 296 294 294 295 294 295 293 292 295 294 292 292 292 296 301 297 295 289 291 288 284 285 283 286 287 287 281 282 285 287 288 286 286 286 284 283 283 282 280 282 281 283 285 285 283 283 283 280 280 280 282 285 288 290 290 287 288 289 289 289 290 290 290 289 289 290 291
309 309 309 309 309 310 310 310 311 311 314 309 306 302 302 301 303 303 300 294 296 296 296 296 296 293 297 296 295 296 294 292 291 291 296 299 295 291 288 289 284 285 283 283 283 283 282 282 285 287 287 285 283 285 285 285 284 282 282 281 280 282 282 283 282 281 283 282 282 282 281 284 286 288 290 290 290 291 291 290 290 290 289 289 288 288 288 287
308 308 308 308 309 309 310 310 310 313 307 305 302 303 302 304 302 303 302 296 293 298 295 294 293 293 294 296 295 295 290 288 288 292 294 298 292 291 288 286 284 283 282 285 283 281 280 282 287 288 286 287 283 282 282 282 281 281 280 278 280 282 279 280 280 281 283 283 280 279 280 283 286 288 288 290 290 290 290 288 289 289 289 289 289 288 288 287
307 307 308 308 308 308 309 309 311 310 305 305 304 304 305 304 304 304 299 290 291 294 294 296 296 296 295 294 296 293 290 289 290 290 298 297 292 290 289 288 285 284 282 284 285 283 283 283 283 287 286 286 285 281 282 281 281 281 282 282 281 281 282 282 281 279 280 281 281 280 281 283 285 285 288 284 284 285 286 286 286 287 287 288 287 286 287 287
306 306 307 307 308 308 308 309 306 303 304 304 303 305 303 305 304 304 296 291 291 290 296 295 296 292 295 296 296 291 292 291 291 293 297 298 291 289 289 290 287 284 283 285 285 284 284 285 283 285 284 285 284 280 282 283 280 280 282 283 284 283 282 280 280 282 278 277 279 280 278 279 279 284 285 286 285 287 284 285 287 288 287 287 287 288 288 288
305 306 306 307 307 308 308 301 299 300 301 300 304 305 303 304 305 303 297 285 283 292 292 289 299 291 299 289 293 291 291 286 293 293 297 298 301 293 290 287 288 284 283 284 284 284 284 283 287 284 284 282 283 283 280 284 283 279 279 283 284 284 282 281 279 281 274 275 278 279 274 278 280 284 286 285 286 288 287 284 287 288 287 286 287 289 288 288
304 305 305 306 306 307 297 290 298 300 296 299 301 304 303 303 304 302 292 282 282 292 285 294 295 291 297 291 292 292 281 283 292 293 295 299 295 298 289 287 286 287 286 287 282 282 284 284 284 285 283 281 279 279 281 284 282 280 280 279 283 282 281 281 281 280 279 278 279 278 277 275 279 283 286 287 285 286 286 286 286 286 286 286 287 288 288 288
304 304 305 305 305 304 296 298 299 296 297 300 299 300 302 301 302 301 289 276 277 293 284 288 292 295 291 291 292 288 286 289 285 290 292 293 295 293 289 286 286 286 286 285 279 286 284 284 282 282 282 282 281 283 284 286 283 280 281 279 279 282 280 280 279 277 276 274 275 277 277 276 277 279 282 282 284 286 287 288 290 287 286 286 286 288 288 288
304 304 304 304 305 303 300 297 297 294 298 296 298 298 299 301 300 292 283 276 289 286 301 288 300 293 289 290 287 285 286 286 284 287 290 293 296 291 286 286 285 286 288 287 283 284 284 284 283 283 281 280 280 281 285 287 284 283 280 281 280 279 278 276 275 277 271 270 274 276 278 276 279 280 283 281 283 285 286 289 289 287 287 286 286 288 288 287
303 304 304 305 301 296 294 296 295 298 296 297 297 298 300 299 294 282 278 272 293 286 292 291 290 284 287 285 285 288 284 284 284 288 290 289 291 293 290 290 287 287 286 288 286 285 284 286 284 283 280 282 282 283 283 286 286 284 283 282 279 278 278 276 274 271 271 270 275 277 279 280 277 281 284 282 284 287 288 284 283 282 283 284 286 288 289 288
303 303 303 303 293 294 295 290 290 294 295 297 298 300 298 292 283 279 274 281 293 286 289 287 284 288 283 284 281 285 284 286 285 285 285 288 287 289 287 285 289 285 285 284 285 286 284 285 281 282 285 282 285 284 285 284 285 284 281 278 279 277 274 273 265 270 269 272 274 276 279 281 275 278 283 285 284 282 286 287 287 287 286 286 286 287 288 288
302 302 302 298 297 297 290 288 292 294 295 297 298 294 291 278 283 276 276 296 282 285 282 282 284 282 282 283 281 282 283 285 286 287 285 286 284 285 285 281 285 275 278 280 279 285 283 285 284 285 286 288 283 282 283 284 284 282 282 282 277 274 271 269 268 267 268 273 272 268 273 274 277 284 282 285 287 286 284 285 289 289 288 286 286 287 288 287
301 301 301 297 297 291 292 296 297 294 296 297 295 291 284 278 272 281 283 285 278 286 284 286 282 283 282 283 279 282 284 281 286 285 287 285 285 285 287 286 287 284 276 282 280 280 281 285 285 285 283 287 287 282 281 279 282 282 282 281 277 273 271 271 269 264 267 271 270 269 271 275 280 282 287 288 291 292 289 287 286 285 288 287 287 287 287 286
300 299 293 294 295 295 295 297 298 297 297 297 292 284 281 275 274 290 284 286 285 288 284 284 283 283 284 282 281 283 278 283 285 283 286 283 284 281 284 286 287 284 284 281 278 279 274 279 281 284 281 288 288 287 286 283 283 282 286 285 281 279 272 270 270 271 274 273 270 267 271 273 274 280 285 288 288 286 290 289 287 286 284 285 284 285 286 285
299 295 291 292 293 293 295 297 298 299 297 293 285 281 274 274 282 280 282 284 285 285 284 287 280 281 279 282 281 284 284 280 285 284 283 282 281 282 282 284 286 286 283 280 281 280 279 280 282 287 284 288 286 288 288 285 283 284 284 282 277 280 279 277 273 269 268 267 267 267 274 275 281 284 286 287 286 286 285 286 285 285 284 283 284 285 286 286
295 288 290 288 291 293 295 297 299 299 295 288 281 276 275 279 277 284 282 288 284 284 285 286 283 279 278 279 281 282 285 282 283 283 280 283 283 282 285 285 285 287 283 281 284 278 281 278 284 284 284 287 287 286 286 287 278 282 282 280 282 283 283 279 276 274 272 269 274 272 274 278 280 286 289 290 286 287 285 285 284 285 283 282 285 286 286 286
287 289 284 287 292 296 297 298 299 298 292 285 279 274 281 282 286 285 286 282 284 287 284 279 280 281 274 277 279 283 283 285 281 281 277 285 281 284 282 285 289 287 288 287 282 285 281 280 282 283 281 283 282 283 284 283 286 282 278 282 282 284 283 280 275 272 267 271 273 273 277 278 274 278 283 289 289 288 286 287 286 284 282 283 285 286 286 286
286 285 288 289 295 295 295 298 299 294 287 283 277 281 283 277 284 283 281 284 284 286 282 281 281 288 280 281 278 281 282 281 279 282 275 284 279 289 284 284 287 288 289 289 285 283 286 279 282 281 281 283 283 285 285 284 282 280 279 284 283 276 276 275 275 272 271 268 273 269 269 274 279 281 282 284 286 289 288 286 284 284 283 284 286 286 285 284
284 284 281 290 295 291 293 298 298 290 285 279 277 278 281 280 283 280 281 285 285 284 280 281 280 284 284 281 283 285 284 281 285 282 280 282 282 288 286 289 285 289 289 289 285 283 285 279 279 281 282 282 282 283 277 281 283 283 284 281 281 281 276 277 279 274 275 273 269 274 270 277 279 280 285 286 286 289 287 283 284 286 287 287 287 287 285 285
283 281 277 285 291 291 295 298 291 286 283 276 278 277 279 278 282 283 285 286 282 283 281 282 282 279 282 283 283 280 284 282 282 282 284 283 284 290 284 287 283 285 288 289 286 287 281 284 276 280 280 282 277 281 279 282 279 281 279 278 280 278 281 280 277 276 276 270 270 270 274 279 277 285 287 289 290 290 287 286 286 286 287 287 288 288 286 286
284 279 277 287 288 293 294 291 285 282 280 281 281 278 280 279 283 284 285 286 284 286 283 282 282 279 281 280 280 285 281 283 283 282 282 283 284 281 288 287 287 285 287 285 285 285 281 281 279 279 277 278 279 281 282 284 285 282 282 280 282 279 277 276 275 276 271 274 271 267 274 281 281 284 289 289 290 289 288 288 287 286 286 286 287 286 286 286
279 268 272 284 289 292 289 280 281 282 280 278 276 279 279 286 281 283 284 285 284 282 285 283 284 282 282 281 281 280 280 279 283 282 283 282 286 285 286 285 283 287 286 282 284 288 283 283 281 277 278 279 281 281 277 277 280 281 282 281 283 282 282 278 274 275 272 274 272 270 267 279 282 284 285 286 285 285 287 287 287 286 286 286 286 286 286 287
278 273 283 285 288 291 284 276 282 279 278 280 281 280 281 280 281 282 280 282 279 283 282 281 281 280 282 280 278 278 279 276 281 279 282 283 283 286 284 283 284 284 286 284 286 286 289 282 278 280 283 278 279 277 277 274 280 280 280 278 279 280 282 281 279 278 278 275 275 273 270 279 283 281 281 281 281 281 283 284 286 285 285 286 286 285 286 286
279 277 280 283 287 288 280 272 273 274 276 278 276 273 276 276 277 277 275 279 280 280 280 280 281 283 279 282 278 276 280 272 280 276 277 280 279 286 285 283 285 282 283 283 281 286 281 280 282 277 275 275 276 277 278 276 277 273 278 281 281 280 280 277 275 276 275 277 279 277 272 279 284 281 281 280 279 283 283 284 284 285 285 285 285 285 285 285
278 277 279 282 284 284 277 279 275 272 274 273 272 270 272 272 277 277 275 276 282 280 280 277 281 282 279 280 277 279 280 277 273 277 279 278 279 284 284 283 283 282 284 286 287 287 281 281 281 274 273 271 271 272 274 275 274 276 277 277 279 280 276 277 277 275 274 279 279 278 279 285 281 282 281 281 281 282 284 284 284 284 284 285 285 285 284 285
276 270 273 272 274 281 280 276 272 271 270 272 270 269 273 271 274 278 279 279 281 280 280 279 280 281 277 276 275 275 274 279 275 274 276 276 279 281 282 282 282 282 285 287 287 285 282 283 283 281 279 277 278 278 279 280 278 276 276 280 280 281 282 283 281 278 276 279 278 279 281 283 284 282 281 283 283 283 286 286 285 286 285 284 283 284 284 284
279 271 271 269 273 272 273 269 270 273 274 277 269 272 269 271 273 274 279 273 278 277 275 276 276 275 275 275 274 273 274 275 277 277 276 276 278 280 282 281 282 284 286 285 287 283 280 279 282 282 282 282 284 283 284 281 278 279 279 278 280 280 281 281 279 278 283 278 275 281 282 281 283 285 286 286 287 285 285 286 286 287 287 286 286 284 286 284
266 265 271 276 273 271 271 266 274 272 274 276 274 274 269 270 272 271 277 279 277 277 271 272 275 275 274 274 274 270 273 273 274 273 278 278 277 278 278 281 280 285 283 281 285 281 278 275 279 281 281 284 284 285 285 284 282 282 281 281 279 280 279 278 280 282 282 279 278 283 281 281 284 286 288 289 289 288 287 288 289 287 286 285 285 284 284 284
277 272 272 277 269 267 269 273 274 272 270 271 272 272 267 270 271 275 274 273 272 272 277 272 274 274 274 275 274 272 273 269 270 276 276 275 274 275 274 277 280 282 280 279 279 282 280 276 280 280 280 282 283 284 284 283 283 282 281 281 281 281 280 280 280 282 282 280 282 283 279 281 282 281 284 286 285 286 288 287 285 286 288 288 285 285 285 285
269 270 269 275 275 271 272 272 270 270 268 273 266 265 270 273 273 275 275 271 268 270 277 273 274 274 273 273 274 272 273 275 275 271 275 274 273 276 275 276 275 279 278 276 278 278 280 275 281 280 278 279 282 283 283 282 281 280 282 283 282 280 281 281 281 281 281 280 281 281 280 281 285 283 286 288 290 291 291 291 292 293 292 290 288 286 286 286
278 275 275 275 272 270 272 271 269 269 267 267 265 267 274 275 273 275 272 275 273 272 275 273 275 273 274 274 273 273 277 277 276 275 276 275 271 276 274 275 278 275 276 276 277 277 281 277 281 279 276 276 281 280 281 281 280 280 280 281 281 279 277 279 279 281 280 278 280 279 278 280 283 284 286 287 288 289 289 290 291 292 293 291 288 287 287 287
281 282 282 278 272 276 269 266 267 266 262 264 270 272 273 272 274 274 270 274 277 277 276 275 274 273 273 274 273 275 278 277 276 277 277 277 278 278 279 279 279 276 275 276 278 276 278 278 276 277 274 274 279 280 279 278 278 276 277 280 282 282 283 283 282 282 282 283 279 277 279 284 283 283 283 284 286 287 288 290 290 291 292 292 290 288 288 289
Wind_Speed
11 11 11 10 11 12 12 13 13 14 14 14 16 16 16 16 16 17 17 17 17 17 18 20 21 21 21 22 22 22 22 10 13 5 3 11 6 8 10 11 11 10 6 3 2 4 0 1 4 4 2 2 1 1 1 1 1 1 2 3 4 5 3 6 7 10 2 0 1 2 4 4 3 1 1 1 3 3 3 5 4 6 8 5 4 1 2 2
11 11 11 11 11 11 11 11 12 13 13 14 14 15 16 16 16 16 16 17 17 17 18 19 21 21 21 21 22 23 16 8 12 9 18 3 7 11 12 12 11 10 8 2 3 4 5 1 0 2 3 1 2 1 1 1 1 3 1 3 10 6 8 8 5 6 2 6 2 2 1 5 8 3 1 1 4 1 5 7 4 9 13 10 8 7 4 0
11 11 11 11 11 12 11 10 11 11 11 12 14 15 15 15 16 16 16 16 17 18 18 19 20 20 21 21 21 20 11 7 4 10 6 6 9 11 11 11 9 9 3 4 2 7 6 7 4 3 2 1 3 3 1 1 3 3 4 6 9 8 5 6 4 5 9 1 2 2 1 4 3 3 0 4 8 2 10 11 2 7 14 12 10 6 7 4
12 13 12 12 12 11 12 12 11 12 13 13 13 13 14 15 16 16 16 16 17 17 18 19 19 20 20 21 21 11 5 3 5 3 3 4 8 9 9 10 9 8 8 6 5 5 5 7 5 3 1 1 2 0 2 4 3 2 2 6 6 3 2 6 9 9 6 1 1 2 1 2 4 5 2 3 4 13 14 13 12 13 13 12 8 7 4 6
13 13 13 13 12 12 12 12 13 13 12 12 12 13 13 15 15 16 16 16 16 16 17 18 19 20 20 20 19 4 2 4 4 1 2 6 6 7 9 9 8 3 6 8 9 5 5 4 3 3 2 3 1 1 4 2 2 4 11 6 3 1 1 7 5 4 3 1 2 0 1 6 1 0 5 5 10 17 8 6 12 15 12 8 8 6 3 6
14 12 12 14 13 13 12 12 12 12 13 12 12 12 13 14 14 15 16 16 16 16 17 17 18 19 20 20 8 2 2 4 1 2 4 6 6 7 8 9 9 9 9 5 3 4 6 2 3 1 0 1 5 7 2 3 2 6 4 7 6 6 5 1 1 3 5 2 4 1 5 1 1 5 4 8 18 19 5 3 7 10 9 9 3 2 4 6
15 14 13 13 13 14 13 13 13 12 13 13 12 12 13 14 14 14 15 16 16 16 16 17 17 18 20 14 1 2 2 7 1 2 8 6 5 7 8 9 8 6 4 5 3 3 1 3 2 2 3 0 3 5 4 3 0 2 9 0 5 4 11 3 3 5 4 6 7 4 2 3 1 7 1 7 19 20 15 4 5 6 3 1 4 6 9 10
16 15 15 13 13 13 14 13 13 13 12 12 12 13 13 13 13 14 13 15 16 16 16 16 16 18 14 5 3 1 1 8 8 4 4 6 6 7 8 4 5 4 4 5 7 3 4 5 5 2 1 5 2 6 1 2 1 5 8 4 4 2 6 5 5 5 3 7 3 2 4 11 6 5 5 20 20 16 14 6 11 7 3 3 6 7 8 8
15 16 15 15 15 15 14 14 13 13 13 12 13 13 12 12 12 13 14 13 13 15 14 14 15 16 7 1 2 4 8 6 3 2 2 7 4 5 5 2 2 4 2 2 2 6 6 6 2 6 5 2 2 3 1 3 7 8 13 0 3 5 4 4 5 6 6 4 3 2 12 8 4 4 12 30 26 15 8 10 12 7 9 12 13 11 8 9
19 17 16 16 16 16 15 14 14 14 13 13 13 13 13 12 12 12 13 14 13 14 14 14 14 12 6 3 1 1 6 1 3 2 6 7 6 7 5 2 4 5 4 0 3 5 5 5 7 3 3 1 5 4 2 5 5 3 2 4 6 10 6 4 7 5 4 4 4 7 13 4 1 6 12 11 10 1 6 11 5 7 12 14 11 11 10 10
20 19 17 18 17 17 16 15 15 15 14 14 14 13 12 12 12 12 11 12 12 12 13 13 9 8 4 2 2 9 2 3 1 2 5 6 7 6 3 3 4 4 3 1 3 5 3 4 4 3 1 5 4 3 3 4 1 1 1 5 7 10 7 8 6 11 1 6 9 8 10 1 1 1 17 21 5 3 2 5 4 5 10 10 10 10 9 9
18 18 18 18 17 19 17 16 17 16 16 15 15 14 13 12 12 12 12 11 11 11 10 10 6 2 2 2 6 9 2 0 1 2 2 3 2 2 0 2 3 4 5 4 4 2 3 2 5 3 3 2 2 1 3 3 0 1 1 7 6 6 11 5 10 5 9 6 5 7 3 5 5 12 25 22 2 2 3 6 5 7 9 9 8 8 8 12
18 18 18 17 17 18 20 20 18 17 16 17 16 15 14 13 13 13 12 12 10 11 11 3 5 4 0 4 11 9 3 1 2 4 2 4 4 4 3 2 2 2 4 2 2 3 3 5 2 5 1 2 2 1 1 2 0 0 1 1 12 5 9 4 0 2 7 3 6 5 7 10 17 25 22 9 3 2 6 9 9 9 9 8 7 8 9 8
19 19 20 19 18 16 17 19 21 22 20 16 17 15 15 15 14 13 12 12 13 11 5 6 3 2 0 7 8 3 1 1 3 2 3 2 5 1 2 3 3 3 2 4 2 3 4 1 3 1 1 1 1 1 0 3 2 3 2 2 5 7 9 2 1 4 5 1 7 0 5 18 6 15 15 12 4 4 7 10 10 8 8 9 8 9 10 11
20 20 20 20 20 18 19 19 18 19 21 21 16 15 14 16 16 14 14 12 12 9 7 7 3 3 0 9 7 9 4 4 3 5 5 6 4 1 0 3 6 5 3 4 3 1 3 4 3 1 2 0 0 2 5 2 3 1 2 7 2 7 7 4 2 7 5 0 1 2 6 17 18 6 6 2 4 5 8 12 11 9 8 9 8 9 10 12
20 19 20 20 21 21 19 19 20 20 19 19 19 17 14 14 16 15 14 14 13 8 4 1 0 3 3 10 3 5 2 1 4 5 3 4 6 4 3 4 1 4 3 3 2 2 3 3 2 3 1 2 2 3 2 4 3 2 7 6 7 3 7 11 0 3 2 3 0 6 9 10 11 2 2 1 5 5 6 11 11 11 11 10 9 9 9 9
20 19 20 20 21 21 21 21 19 20 21 19 19 19 16 14 16 14 9 6 4 4 2 1 2 2 2 5 1 2 4 4 1 1 3 0 4 7 6 3 1 2 4 4 3 2 2 1 1 1 3 3 3 4 1 4 8 8 1 7 4 6 3 5 3 2 1 2 4 4 3 15 17 7 2 2 5 3 5 13 14 14 13 12 9 9 10 10
19 18 19 19 20 21 22 22 22 21 20 20 19 17 14 13 3 3 7 5 4 5 5 2 3 1 11 1 6 5 0 3 2 1 4 1 4 6 5 2 1 4 3 2 1 3 1 1 2 5 1 1 2 5 8 13 14 3 3 4 9 5 7 14 5 1 3 1 4 2 8 20 23 19 15 7 4 6 14 17 16 16 15 13 10 11 11 11
18 18 18 18 19 20 21 22 23 23 21 22 19 13 6 8 4 3 3 2 4 1 0 5 4 7 6 1 5 5 1 2 1 4 2 5 1 3 4 3 4 6 1 2 3 5 1 2 3 2 6 5 12 15 16 19 1 3 8 6 4 5 4 8 7 2 7 4 5 9 12 15 22 21 17 4 5 10 16 14 12 14 14 13 12 11 11 12
19 19 19 19 19 20 21 22 22 22 22 13 8 2 1 3 0 2 1 2 6 8 4 8 14 3 6 5 1 1 1 1 3 1 3 1 7 3 2 2 2 3 5 5 1 4 3 7 9 11 14 17 16 14 17 8 3 1 2 1 7 7 8 5 1 1 1 1 10 16 13 15 23 24 20 10 4 9 13 15 16 14 14 13 11 12 13 13
21 20 20 20 20 21 21 22 23 22 22 10 4 1 4 3 4 5 3 10 13 9 11 8 18 15 10 1 1 1 2 1 2 1 5 2 2 8 4 3 2 3 6 4 6 1 2 7 14 14 17 12 7 7 8 9 5 5 6 6 11 3 15 5 3 1 2 4 5 5 5 13 20 23 19 10 5 14 16 17 17 17 15 12 11 13 13 13
22 23 22 21 22 22 23 25 25 24 17 1 3 4 2 2 1 2 1 10 7 16 13 16 6 10 5 10 3 3 4 3 1 3 2 6 5 9 3 6 5 11 3 4 2 2 5 16 14 16 5 2 1 6 9 12 11 8 9 8 8 11 8 6 3 1 1 1 11 8 13 16 19 23 18 15 15 17 18 14 15 12 14 11 9 11 11 7
23 23 23 23 22 23 24 27 27 22 3 1 2 4 4 2 1 1 0 7 16 11 16 13 8 17 16 9 6 4 11 12 11 7 9 7 5 8 4 6 5 4 3 7 9 6 8 13 14 9 4 6 4 3 5 4 4 8 7 4 14 4 2 9 1 1 1 6 4 3 13 16 17 23 24 20 16 16 10 6 12 11 13 13 12 8 8 8
23 23 24 24 25 24 27 28 22 5 3 6 7 6 1 2 2 2 1 5 11 5 12 12 17 9 12 9 6 12 14 6 7 10 5 9 11 4 4 9 6 4 9 11 14 14 20 4 2 7 8 9 13 4 6 5 9 7 10 11 9 7 10 9 6 2 1 4 2 8 13 14 14 18 17 4 2 4 9 5 8 9 9 10 5 5 7 10
23 23 24 25 25 27 27 25 3 5 9 6 7 3 2 1 1 2 2 6 5 8 5 4 5 4 3 5 8 8 7 4 9 1 9 12 7 3 6 3 4 11 8 11 8 11 19 7 5 8 6 8 7 4 9 9 10 6 11 14 14 9 8 6 4 5 6 6 1 1 9 10 6 14 13 8 4 6 3 5 10 9 7 6 9 11 7 7
24 23 24 24 25 26 23 7 2 8 11 7 3 3 1 0 1 1 1 3 12 4 5 9 7 8 7 2 5 7 6 6 5 6 8 9 4 5 2 4 5 11 8 7 9 6 9 2 7 7 7 6 7 9 5 9 12 7 7 13 15 13 9 5 3 1 6 8 3 1 2 18 3 4 5 5 6 13 4 6 11 8 10 7 9 9 8 8
24 24 24 25 24 25 10 3 5 10 7 2 3 1 0 0 1 1 2 4 12 5 8 1 6 2 5 5 9 7 1 6 2 1 8 5 11 0 6 6 2 0 3 4 2 10 3 1 7 6 6 8 6 9 6 14 7 9 1 3 7 6 7 9 7 8 8 0 3 1 2 6 22 6 6 10 9 13 12 11 12 12 10 10 10 9 8 8
24 24 24 26 25 20 5 5 8 9 8 4 4 2 2 2 2 2 2 7 11 5 4 3 2 3 6 4 10 5 3 5 3 4 2 1 3 3 7 9 10 8 4 5 15 0 6 2 5 7 7 8 11 7 6 13 8 4 0 5 4 7 6 3 5 5 2 3 10 7 3 4 13 4 2 3 5 8 11 9 12 8 9 9 10 10 9 8
25 25 26 26 26 22 5 2 5 9 1 1 3 2 1 3 0 2 3 12 1 3 4 6 2 5 3 4 5 1 0 1 2 0 1 2 2 2 8 5 3 3 4 9 14 4 1 2 10 9 7 8 5 1 10 12 10 1 6 8 7 7 6 4 4 3 1 1 13 8 7 7 22 7 7 1 2 11 10 12 12 9 8 8 9 9 8 5
25 24 25 26 19 10 4 3 6 8 4 1 1 0 2 3 2 5 6 10 3 8 2 1 3 4 4 9 4 1 1 1 2 1 1 4 3 1 1 3 3 2 5 4 7 7 1 1 4 4 6 5 5 2 3 6 2 8 3 7 5 7 3 3 4 2 2 8 12 9 12 9 15 5 11 8 9 10 9 4 4 5 5 6 8 8 8 8
25 26 24 24 8 6 6 9 3 3 0 0 2 1 1 3 5 5 15 6 13 4 1 2 1 8 9 8 6 4 1 2 2 5 3 1 1 2 0 1 1 1 2 4 12 9 1 1 1 4 4 3 4 4 2 1 7 7 2 3 2 2 4 2 2 2 3 13 2 6 14 16 14 4 4 4 2 3 6 8 7 7 8 8 8 8 8 7
24 26 26 15 9 3 3 8 3 0 0 3 3 2 3 6 5 13 11 8 0 3 3 1 5 2 2 5 7 4 9 0 2 5 9 9 10 12 13 13 9 3 5 8 10 3 9 14 3 1 4 12 3 6 1 3 2 3 6 5 5 4 4 3 2 2 7 12 0 2 2 3 21 19 5 9 7 5 7 7 9 11 8 6 6 7 8 7
25 26 28 8 8 3 4 8 6 4 3 2 1 1 5 5 11 9 9 2 5 1 1 2 2 3 0 3 4 3 5 4 1 3 2 1 8 10 8 9 10 8 5 3 7 3 6 2 7 7 3 7 11 10 5 1 7 7 9 7 6 5 5 13 5 1 5 4 1 1 1 9 5 9 12 22 27 20 10 10 8 4 7 8 7 6 7 7
26 23 13 8 7 5 5 6 7 2 3 3 4 1 5 9 10 4 10 8 12 9 4 5 3 2 3 7 3 2 2 4 7 4 2 4 3 5 7 10 8 6 2 2 4 7 3 6 8 10 6 8 13 18 16 6 13 14 6 13 13 8 6 9 4 9 11 8 1 4 3 9 5 5 1 14 7 3 8 9 7 7 3 0 1 3 5 6
26 14 8 7 2 2 2 5 6 6 3 4 1 4 10 9 5 6 6 4 3 3 9 10 9 4 5 3 3 3 4 3 5 4 5 6 8 7 9 12 15 4 1 4 4 3 9 11 4 14 0 9 14 6 5 6 3 6 3 5 1 15 6 12 2 1 2 3 3 3 9 3 7 5 9 6 8 6 5 6 5 8 5 3 2 5 7 8
16 9 5 4 3 4 6 5 5 5 5 4 3 5 11 6 5 4 4 4 1 5 10 7 3 2 5 1 2 2 6 3 2 4 2 8 5 5 2 1 9 16 11 10 5 4 2 7 1 4 3 12 10 3 4 7 9 5 7 10 9 3 5 4 2 2 2 3 16 4 8 9 6 13 15 14 6 10 4 5 5 8 5 5 8 8 7 8
9 9 6 3 3 8 8 6 3 5 3 5 4 6 7 6 6 11 6 8 7 9 8 12 5 2 1 3 2 1 3 1 4 4 5 2 5 4 4 6 8 12 14 9 5 4 8 5 1 7 4 2 1 0 1 5 1 8 7 8 4 1 5 4 7 2 1 10 11 5 15 10 2 15 2 16 15 13 6 10 10 5 4 7 10 9 9 10
8 5 4 2 2 9 7 6 2 5 4 2 5 11 2 3 3 3 5 12 7 7 3 5 4 5 5 5 4 6 8 3 4 4 2 5 5 7 6 2 7 14 20 17 10 4 3 10 4 2 3 2 2 1 1 1 2 4 5 3 8 5 6 2 3 8 8 6 8 5 3 9 11 14 2 3 8 13 13 9 6 9 8 11 9 8 5 4
3 3 6 1 4 9 7 6 2 5 3 3 4 7 3 2 4 3 5 2 1 6 8 3 6 1 6 8 5 7 5 6 4 4 3 2 4 2 9 8 4 13 19 17 10 3 3 6 2 0 3 2 2 3 9 8 1 0 1 1 1 1 2 9 9 1 3 9 1 12 3 15 5 7 8 9 9 15 11 7 12 15 15 12 11 9 9 9
5 5 3 2 7 11 10 2 3 1 1 4 4 3 3 3 2 5 7 9 6 5 3 6 9 8 8 5 10 7 3 4 3 5 3 4 6 6 3 7 4 5 6 9 11 3 5 1 7 1 3 1 2 6 11 13 12 6 2 3 1 1 2 2 3 5 7 4 7 6 14 11 4 9 13 17 18 15 10 12 11 11 12 12 11 10 10 10
2 1 6 3 12 10 7 1 1 2 2 2 2 4 6 5 5 2 4 3 0 4 4 5 5 4 5 11 8 10 6 8 6 5 1 4 3 6 5 8 10 4 4 5 6 2 2 3 6 3 1 6 6 1 2 10 16 14 15 14 15 11 5 6 9 2 2 4 7 3 15 14 5 1 10 13 11 4 7 8 10 8 9 11 9 6 8 9
3 5 6 7 11 11 4 5 2 2 2 3 4 5 5 9 3 7 4 3 3 2 0 2 5 3 6 4 10 12 11 10 7 4 2 4 1 1 7 25 20 14 2 3 6 6 2 1 4 5 6 9 3 2 2 1 1 2 6 9 8 8 7 7 12 6 2 4 1 2 2 19 4 3 3 5 2 1 4 5 5 4 6 8 8 6 5 6
3 4 8 7 7 6 3 2 4 5 3 3 5 3 3 3 3 5 5 4 6 3 2 1 5 9 7 9 8 8 11 6 8 7 11 11 12 8 11 23 21 17 14 5 5 5 10 5 5 9 6 1 2 1 1 3 1 3 5 2 3 11 12 8 3 3 7 3 6 5 5 18 1 2 1 3 3 1 2 5 4 4 4 5 4 5 7 6
2 4 6 5 5 2 7 5 5 4 3 5 3 4 4 1 4 8 3 7 5 5 5 4 2 5 3 5 3 7 9 6 5 13 10 12 9 12 12 16 17 10 8 6 6 9 7 2 10 8 2 1 1 2 1 1 1 2 4 6 7 3 5 1 3 1 3 11 11 9 13 18 1 5 3 5 3 3 3 4 3 4 3 3 4 4 4 4
4 2 4 6 6 6 6 3 3 2 5 6 4 7 6 5 5 6 4 3 4 4 4 4 4 5 3 6 2 1 3 4 6 4 3 10 9 10 6 17 10 9 8 9 11 9 6 5 4 7 8 9 7 5 6 7 8 2 3 3 4 9 5 3 9 4 9 7 11 11 13 14 3 4 4 4 5 5 2 1 4 4 6 3 2 3 3 5
3 5 4 5 6 4 4 2 4 3 4 7 9 2 4 5 3 8 5 1 7 9 5 3 3 5 8 13 10 8 5 3 4 7 8 7 11 5 9 19 8 10 9 12 13 8 5 3 5 7 7 9 6 3 1 4 4 6 6 13 11 11 13 12 6 9 15 17 14 9 13 20 9 4 8 6 6 5 4 3 3 5 6 4 3 1 3 5
0 1 3 6 5 4 3 3 4 3 3 4 2 4 6 3 3 4 5 1 7 6 5 1 5 10 10 11 9 8 4 10 4 6 8 10 5 8 17 11 12 7 10 10 7 6 4 7 10 13 16 14 11 13 9 4 4 6 7 7 11 12 12 15 14 18 17 11 17 13 19 15 23 8 10 13 11 7 4 4 4 5 8 6 2 2 3 5
3 2 1 1 1 5 8 3 6 2 2 2 3 2 3 5 6 3 3 3 6 5 4 2 10 9 7 6 8 5 10 12 8 5 9 5 11 15 18 11 11 1 13 7 5 2 4 7 11 11 14 13 14 15 16 13 8 9 9 10 10 12 12 14 18 21 15 13 20 18 5 16 23 9 13 16 14 9 13 15 9 3 2 2 1 3 6 7
1 1 1 2 1 1 1 8 6 0 3 2 2 1 2 4 3 3 4 5 3 5 3 5 9 9 8 7 5 7 9 9 6 4 8 15 15 16 11 17 2 5 11 10 8 1 3 5 9 8 14 14 14 15 17 18 12 10 12 13 13 13 15 17 20 20 20 18 15 19 5 13 3 2 5 7 4 7 10 6 5 6 9 8 5 7 7 10
2 1 4 2 1 4 4 3 2 5 5 3 1 3 1 2 6 8 3 3 6 5 1 8 8 10 9 6 7 7 8 9 11 12 8 15 19 4 12 9 13 9 3 9 6 4 3 7 13 10 12 13 14 15 17 18 12 16 15 16 13 8 11 18 18 20 18 18 20 19 20 22 12 1 8 10 13 15 17 18 19 21 19 14 15 11 11 12
1 1 1 2 2 3 1 0 2 2 3 3 1 3 1 4 7 7 5 3 6 3 5 8 7 7 6 8 7 10 8 8 11 12 13 10 12 14 6 9 4 16 19 9 2 3 3 8 7 6 11 13 11 12 17 17 13 15 16 14 12 10 11 11 15 14 12 15 14 13 17 20 9 6 8 9 11 15 17 18 19 19 23 20 16 12 13 14
0 0 1 0 3 3 3 1 1 2 2 3 1 1 3 5 8 7 6 4 1 3 8 7 7 7 7 7 10 11 6 9 12 14 13 13 13 16 14 17 17 13 11 10 7 8 4 4 7 8 11 10 15 14 14 10 9 10 13 17 21 22 20 14 9 7 12 11 14 13 19 13 7 5 7 8 11 14 17 17 17 19 21 20 16 14 13 14
Wind_Direction
316 320 325 329 324 321 319 319 319 321 323 324 322 325 325 326 327 328 329 330 332 333 331 331 332 330 329 329 329 329 329 333 312 309 280 238 191 155 138 130 136 134 128 96 86 114 22 15 182 334 55 95 304 111 242 58 122 88 179 140 247 200 171 212 189 190 218 165 274 190 219 165 270 305 248 38 282 228 269 254 273 287 258 225 239 243 255 299
307 310 314 320 327 326 324 321 320 320 322 320 322 323 324 324 325 326 328 328 330 332 333 332 331 331 329 329 332 329 337 315 295 280 241 223 166 146 134 135 137 140 121 77 133 161 135 197 20 44 99 141 326 141 44 229 122 157 137 129 239 179 236 162 202 210 148 251 212 227 276 182 230 140 305 215 269 283 280 251 217 252 269 269 263 252 268 89
297 305 306 310 312 319 330 327 323 324 319 322 326 324 325 326 326 325 326 327 328 331 333 332 333 330 331 329 328 338 348 317 303 270 287 175 160 143 135 132 137 153 142 152 200 144 166 182 176 99 2 118 360 188 68 232 142 230 132 231 244 211 234 218 190 221 208 148 240 257 252 173 247 177 66 216 257 296 253 255 198 233 254 250 254 248 234 219
289 290 296 299 303 306 310 316 330 331 332 339 331 327 326 325 325 327 325 325 327 329 332 332 333 333 331 329 332 339 6 280 282 274 290 168 144 135 132 126 114 106 94 74 141 104 108 88 75 101 98 131 291 28 153 232 139 253 121 218 233 208 215 256 198 229 226 186 243 198 109 288 265 221 162 213 317 253 243 234 219 230 234 253 248 246 248 229
281 282 286 287 290 295 297 301 308 316 320 330 329 329 329 326 326 326 326 325 326 329 331 332 333 333 332 329 333 46 347 14 270 288 278 145 139 133 126 121 110 75 100 139 84 57 73 103 92 47 89 206 349 40 245 221 187 112 213 243 189 121 207 250 200 200 183 222 155 110 252 247 86 70 227 184 224 258 212 233 201 229 240 240 251 249 181 204
272 275 275 278 278 284 279 284 290 297 307 316 319 326 325 325 328 326 326 326 327 327 329 332 333 336 333 332 344 79 96 289 298 339 184 146 148 134 130 121 109 105 106 67 100 128 101 43 91 147 263 114 194 174 261 166 146 227 271 256 221 204 238 269 193 211 149 154 182 191 231 66 159 268 221 198 221 249 219 173 192 211 222 227 217 161 200 204
261 268 267 266 268 270 272 275 276 282 294 301 303 315 321 326 326 329 327 327 327 328 329 330 334 336 337 341 255 79 192 267 351 253 166 155 143 145 129 116 103 99 87 94 103 124 109 107 128 207 110 336 274 206 248 175 10 223 256 277 294 182 229 231 272 125 202 185 226 209 52 233 176 284 135 229 240 243 255 191 215 217 235 165 200 205 213 207
257 260 261 264 263 262 265 265 269 271 276 286 285 301 315 320 326 332 335 331 329 330 329 331 335 338 352 5 18 331 7 250 253 288 191 139 77 106 98 75 97 101 116 155 155 138 132 142 176 129 185 172 221 163 178 118 136 219 260 235 267 176 242 268 271 281 222 239 238 346 269 246 190 240 350 265 255 242 254 241 251 236 230 231 229 230 223 226
260 259 258 261 259 260 259 260 260 264 267 269 274 279 300 313 319 327 335 335 330 328 332 334 334 339 34 91 114 337 260 236 228 238 110 103 107 92 134 134 134 127 140 91 179 167 138 236 181 183 249 212 189 168 218 158 284 206 233 312 289 274 277 257 281 246 235 265 177 261 244 255 230 305 269 257 267 258 231 239 236 233 238 239 237 233 222 224
285 264 261 262 261 260 258 257 257 257 260 262 262 271 276 299 307 317 321 332 333 333 331 335 335 352 38 42 358 281 266 344 347 76 109 118 108 103 45 129 130 118 128 185 96 126 187 212 176 194 120 155 149 211 128 166 230 163 254 243 265 271 298 275 232 256 226 225 166 217 257 259 277 156 275 260 244 309 204 234 236 212 234 238 236 236 230 225
350 333 291 272 267 264 261 257 257 255 255 255 258 261 268 276 294 304 313 317 329 329 333 330 10 45 37 39 144 238 216 86 19 47 107 116 113 133 200 172 170 144 121 107 201 185 179 146 169 111 80 227 128 253 159 220 146 87 214 298 266 271 261 252 280 261 95 275 189 207 260 135 201 185 233 255 95 117 127 225 234 217 235 238 237 237 236 228
344 342 347 334 303 278 268 263 259 257 253 254 254 256 259 272 282 295 300 311 314 326 330 334 75 100 136 120 226 223 4 360 55 62 61 107 80 268 242 175 170 160 160 182 239 232 171 170 134 162 208 120 260 125 259 237 14 293 26 310 290 327 300 194 228 250 160 252 159 172 281 242 186 217 235 244 196 286 277 262 239 235 238 241 242 240 235 227
344 341 338 336 339 334 312 285 267 260 257 254 254 254 253 257 268 283 293 300 306 315 322 35 98 82 41 287 233 241 330 325 120 99 58 84 105 55 77 59 104 142 173 155 216 207 153 141 147 177 216 112 178 199 135 89 278 64 54 185 313 333 286 305 140 83 150 248 150 165 285 246 201 223 249 247 215 235 270 261 252 246 242 240 236 236 239 240
349 348 343 337 333 330 332 333 312 281 265 256 253 251 254 259 262 268 284 289 299 301 343 71 88 140 107 240 271 234 228 139 112 119 190 184 111 6 27 16 69 58 25 103 88 109 115 84 114 149 99 150 276 285 14 341 18 216 240 113 244 351 271 275 159 163 157 202 168 334 235 280 205 239 248 263 217 195 248 254 261 251 250 249 242 238 240 240
357 354 350 346 338 330 328 327 327 325 299 273 255 249 247 257 262 264 275 286 279 297 107 84 81 68 253 268 266 279 172 126 176 223 173 147 133 68 320 23 41 37 73 102 124 74 125 105 91 103 255 309 294 341 291 12 357 290 360 269 314 184 276 295 174 167 156 323 143 136 275 258 278 257 242 250 170 173 234 259 263 262 253 247 244 241 241 242
358 354 352 351 346 339 330 324 326 325 323 306 272 257 252 245 257 263 266 270 280 277 97 66 199 119 327 297 274 82 85 168 242 211 215 143 162 184 160 109 93 23 36 14 71 104 48 96 97 189 132 15 77 112 347 8 311 338 192 266 256 165 264 340 231 218 27 124 263 190 241 320 296 302 353 136 120 164 229 264 265 263 262 257 246 242 244 254
356 353 351 349 348 344 336 330 323 324 324 320 299 268 254 253 260 272 299 317 297 120 142 230 112 197 221 234 342 251 227 233 133 48 147 140 153 145 113 83 60 77 57 60 39 80 352 90 268 42 34 140 170 122 285 273 284 250 96 224 224 229 284 265 294 189 259 140 219 238 234 245 256 247 206 39 142 147 237 260 264 264 261 254 251 244 244 243
355 353 350 347 346 345 342 336 332 322 321 319 314 293 264 259 337 27 57 51 80 76 70 65 155 299 263 271 258 233 81 299 353 121 68 328 123 131 113 111 61 103 92 42 341 130 280 149 49 195 36 91 151 159 179 235 221 182 163 236 275 254 224 252 272 256 130 22 233 269 238 262 269 270 270 247 195 232 256 258 262 267 264 260 249 248 244 240
354 351 347 348 345 343 342 338 332 330 322 319 311 308 301 68 65 58 86 157 115 358 350 196 167 184 243 236 284 329 241 198 289 143 178 114 24 100 67 82 110 126 146 116 271 147 344 73 38 103 216 184 213 193 198 229 107 207 182 200 196 243 241 238 242 254 171 192 244 234 236 255 268 273 271 241 205 230 250 261 264 262 264 264 256 253 251 246
351 347 346 346 345 341 340 335 331 325 323 316 335 9 358 321 329 269 46 304 232 201 198 174 203 293 335 283 209 273 264 348 107 246 112 250 127 110 38 100 36 58 124 189 134 193 123 181 189 201 221 213 219 201 217 241 29 111 145 180 243 254 278 278 261 261 191 315 234 250 243 256 268 271 276 273 222 242 253 258 260 258 262 260 258 252 249 246
346 346 344 344 343 340 336 333 328 321 321 313 298 197 230 196 294 278 202 229 227 235 242 220 196 210 228 122 261 154 208 269 129 171 186 129 118 122 224 116 148 186 217 161 146 241 91 214 226 220 226 221 221 202 239 275 290 273 277 265 271 209 266 256 290 126 273 177 280 252 283 258 266 273 274 277 207 250 245 254 256 258 257 256 253 256 249 250
345 344 346 344 342 339 333 331 323 320 319 150 206 232 249 228 218 221 13 282 215 230 239 243 221 253 263 247 209 150 79 250 217 229 233 143 190 162 246 162 170 206 137 123 58 123 205 224 226 220 223 96 144 196 208 213 233 241 237 259 282 259 269 284 260 18 271 125 265 288 277 272 273 276 277 266 259 259 255 242 250 250 261 255 248 249 257 261
345 344 343 342 341 337 335 326 323 323 346 89 218 269 259 219 170 293 84 276 271 207 222 226 237 242 242 243 235 106 243 226 233 198 190 150 156 214 152 168 200 177 128 170 180 191 256 252 236 225 166 219 248 148 185 225 248 230 247 261 240 242 293 293 304 42 229 190 276 323 297 279 275 275 269 264 244 249 262 235 240 238 243 246 241 235 244 248
344 342 342 342 340 339 333 326 317 359 11 276 249 233 276 131 142 52 42 258 293 205 192 210 209 218 218 204 193 167 211 234 194 233 163 160 167 167 149 191 181 177 207 183 198 204 226 198 253 169 179 181 221 166 154 180 242 215 218 232 251 242 235 209 267 295 249 300 311 308 280 272 246 266 278 298 282 288 275 252 255 252 241 251 282 274 226 237
343 343 342 341 341 339 336 317 5 347 320 290 252 259 173 118 58 90 30 291 245 277 167 304 176 249 201 60 129 146 221 265 216 94 182 169 151 110 222 150 131 223 198 197 218 246 259 231 105 133 186 202 198 183 198 169 249 242 224 211 230 238 254 256 311 355 345 320 231 63 320 269 227 222 258 275 304 267 226 224 247 242 235 227 242 244 241 239
341 342 342 340 340 341 335 326 322 349 322 290 285 355 80 226 291 153 51 267 283 240 65 244 144 268 123 169 127 158 98 233 194 196 168 200 169 168 94 214 171 231 168 155 210 228 250 148 172 179 175 196 200 217 204 165 237 257 263 187 221 230 237 245 272 56 281 249 302 23 200 293 138 236 231 250 268 270 271 244 260 247 245 228 232 235 229 220
340 340 340 339 338 343 354 314 323 322 321 303 22 291 114 223 343 257 243 261 265 178 170 230 150 255 134 192 143 142 127 249 50 177 171 199 186 161 201 204 55 72 142 168 45 251 99 222 176 170 155 172 188 229 215 181 204 252 287 212 202 212 220 231 220 203 247 331 274 77 113 276 294 237 222 252 252 269 283 267 245 244 232 229 227 226 224 213
337 338 338 336 334 341 274 280 319 307 278 318 351 10 83 107 47 335 200 282 270 91 138 205 210 346 83 183 169 148 199 134 78 220 123 283 130 279 214 210 199 170 184 145 224 44 134 157 169 184 190 193 213 213 158 172 178 226 252 131 142 185 202 193 182 211 230 33 279 147 143 306 257 285 292 104 254 262 254 258 256 230 220 223 221 222 220 213
336 334 336 335 332 326 299 239 287 277 285 326 356 37 80 75 150 227 233 236 6 24 165 78 253 55 42 73 193 20 89 312 150 360 49 49 259 124 217 220 139 171 221 198 235 230 320 160 205 174 168 216 203 287 168 168 217 199 127 97 87 83 68 108 118 135 321 59 258 168 161 222 278 216 202 301 216 258 243 242 253 231 216 212 220 219 215 213
335 333 334 335 331 330 324 253 221 251 340 42 9 24 100 88 111 229 231 250 150 228 33 282 114 195 117 141 229 310 148 288 98 68 93 160 200 74 345 143 136 173 235 270 264 255 219 6 180 138 196 197 124 74 186 196 170 133 113 75 39 41 42 35 67 93 48 244 250 162 193 185 277 256 182 143 212 205 230 280 270 269 242 238 229 207 200 202
332 330 331 333 318 293 314 303 294 336 36 47 167 118 82 11 207 220 238 238 5 247 100 26 62 114 135 157 182 216 60 156 181 153 160 153 157 130 64 16 55 93 229 277 262 254 145 80 97 244 130 110 105 85 56 136 148 136 110 128 68 332 26 33 336 54 193 265 223 203 182 187 216 276 215 224 318 251 188 190 196 212 208 214 204 205 200 189
333 328 328 331 298 324 306 278 309 22 218 210 136 156 159 202 265 220 223 13 198 297 90 325 47 1 311 335 14 187 178 47 196 180 167 177 169 168 202 194 157 91 258 207 253 185 242 237 172 46 229 143 156 97 7 65 209 107 119 102 145 248 38 295 56 250 195 246 240 328 143 343 238 244 290 275 259 280 216 234 189 189 203 203 212 203 186 177
333 329 322 322 303 313 249 255 293 276 207 266 240 320 207 233 232 225 247 240 249 17 274 102 219 132 271 7 290 224 358 204 184 192 109 314 167 229 223 202 192 168 190 208 218 218 271 210 174 209 89 231 152 189 174 139 214 163 165 160 130 236 234 259 234 252 313 291 291 180 325 251 287 296 220 255 255 239 233 224 245 245 196 190 203 191 174 180
330 328 318 311 300 256 254 293 282 200 161 200 191 59 264 225 248 222 251 222 275 348 92 42 341 48 165 182 258 83 287 251 146 217 205 173 190 207 239 240 225 247 140 169 151 193 270 289 220 134 247 174 189 213 199 185 167 197 179 172 201 184 180 238 183 229 241 241 293 283 113 233 116 248 262 246 292 313 226 222 222 221 245 284 172 178 174 177
326 316 297 307 335 280 267 304 289 196 146 143 88 207 235 257 286 256 282 359 343 20 336 347 8 289 290 261 249 199 171 309 172 148 187 166 212 209 193 208 221 172 108 147 242 150 209 235 248 182 302 147 190 219 96 93 123 212 204 40 106 226 97 236 210 168 306 335 328 222 212 211 195 274 291 231 272 289 266 236 199 237 210 200 204 189 201 196
327 314 318 290 348 306 321 320 301 182 162 133 154 237 240 231 257 327 300 353 9 338 321 318 222 275 267 308 298 220 242 185 257 133 273 218 224 236 295 290 194 196 176 196 182 203 207 251 148 112 59 172 188 120 188 152 203 188 120 213 213 70 172 269 333 83 79 32 257 145 286 261 298 278 263 280 225 253 232 234 218 231 206 193 218 219 213 204
322 326 358 351 331 328 319 300 305 168 107 146 198 254 250 265 279 291 5 1 271 347 355 331 331 339 302 293 321 281 298 63 245 145 242 180 277 195 245 253 193 201 213 185 269 181 208 234 55 151 215 258 141 200 160 30 139 102 201 218 57 118 90 148 229 353 102 229 265 133 238 273 68 286 190 230 231 231 215 224 216 220 197 200 221 216 207 203
321 314 280 287 328 325 320 315 96 84 87 226 218 237 339 309 299 8 327 351 348 3 352 324 296 331 294 325 321 329 337 313 289 186 271 216 253 204 195 218 201 197 211 226 236 267 181 253 190 253 81 84 27 102 339 334 30 148 183 241 145 219 224 273 101 238 240 245 275 264 251 261 210 245 308 358 242 250 236 215 210 219 211 222 225 226 210 197
297 355 341 260 336 339 334 320 144 115 122 222 227 284 257 253 2 52 331 277 246 333 340 315 332 333 330 319 297 307 328 280 306 294 334 264 248 204 190 204 268 213 218 213 237 249 326 214 317 352 139 180 67 163 196 189 319 130 316 324 321 70 243 162 201 170 119 251 84 274 75 267 162 217 205 235 214 226 223 184 209 210 205 207 212 207 192 195
352 4 300 274 347 341 319 328 69 34 98 227 264 242 316 10 9 13 343 10 14 354 327 338 350 309 317 312 339 301 305 304 276 267 239 296 285 306 296 323 324 338 247 211 226 3 285 303 258 110 326 116 168 214 207 171 170 208 144 222 199 214 258 97 318 171 195 199 222 277 289 263 231 210 192 212 225 223 177 196 209 209 212 214 210 198 190 195
324 123 280 283 349 339 326 67 34 206 214 301 338 314 338 331 344 315 28 30 48 218 216 316 308 300 313 328 342 5 330 314 303 282 223 314 351 333 29 26 341 350 360 28 263 293 301 320 244 127 56 227 246 277 188 189 189 184 182 199 192 172 184 190 244 64 144 174 237 176 259 278 246 224 216 222 236 279 233 190 197 204 208 206 211 215 194 193
29 353 273 322 347 343 1 46 32 56 6 5 4 325 314 338 348 353 10 315 45 310 9 217 270 292 316 344 352 347 342 325 297 304 246 247 273 190 349 21 6 326 293 221 211 238 168 294 336 235 212 218 238 266 349 348 333 209 193 226 197 206 203 191 222 224 46 256 111 204 59 268 74 293 281 285 297 286 272 251 202 213 200 205 209 209 213 206
7 247 274 319 326 347 31 79 63 34 357 346 308 273 324 331 15 331 343 350 358 343 320 290 348 9 11 21 338 344 349 306 291 3 333 352 328 14 7 8 360 1 329 313 277 248 169 220 198 250 265 296 277 325 13 28 24 297 277 214 144 207 210 225 263 194 184 168 213 220 198 263 197 281 42 279 303 328 349 290 280 210 199 217 205 199 207 207
282 295 320 297 350 23 69 39 10 359 349 309 7 289 315 260 22 350 3 339 8 344 355 329 355 41 329 7 341 341 354 360 335 13 333 345 317 336 15 357 360 347 356 346 331 339 281 269 209 230 206 325 2 348 338 356 56 238 231 228 217 254 238 189 80 326 272 204 210 177 233 258 324 316 37 354 353 348 342 306 307 282 245 227 217 218 219 214
296 261 231 298 347 33 69 46 25 335 359 325 339 341 0 355 14 320 316 332 13 346 341 340 358 324 17 342 296 242 61 91 292 294 297 310 302 329 333 356 340 327 323 309 322 303 278 294 245 225 210 237 235 212 230 221 222 218 245 293 214 199 187 129 240 194 246 236 203 221 245 255 316 340 4 354 348 347 319 307 293 245 260 236 207 206 222 202
17 350 314 335 1 18 71 63 74 23 346 1 354 335 15 330 341 326 7 286 43 354 357 303 337 18 11 358 355 355 345 132 25 295 333 305 331 319 348 329 325 312 325 349 350 354 299 284 272 283 283 269 261 256 187 85 96 188 224 217 221 206 201 208 208 220 228 241 234 231 241 261 268 314 321 321 334 328 335 327 264 296 286 272 239 202 210 219
272 95 322 340 337 45 40 24 36 17 12 337 324 333 332 347 293 313 12 20 356 0 326 303 47 25 358 356 351 328 311 318 294 253 281 311 300 299 310 293 305 274 344 352 7 2 317 306 284 264 259 261 275 280 270 147 191 218 231 239 230 217 210 208 204 227 226 246 261 232 232 251 255 250 295 305 301 296 259 258 308 312 279 261 282 217 220 228
38 266 128 219 138 310 359 342 15 351 313 314 281 305 283 332 344 353 351 77 350 347 12 314 32 13 2 351 325 309 329 322 311 304 319 316 328 328 325 328 310 265 3 337 15 60 292 296 297 296 281 268 263 263 267 266 244 252 241 239 236 220 216 217 230 237 234 223 240 253 186 229 256 245 240 249 265 299 330 328 309 250 301 2 224 223 239 236
127 246 254 327 37 281 239 276 318 65 357 308 288 328 307 319 316 39 0 325 358 332 1 347 358 350 339 337 345 309 324 326 322 336 347 338 336 331 320 328 292 356 358 330 336 214 277 246 284 282 279 274 264 258 261 257 255 250 246 244 238 221 214 217 231 239 240 246 254 265 232 240 258 308 256 259 300 320 306 288 293 308 288 275 248 235 236 237
303 85 313 351 215 275 287 337 323 357 338 322 348 270 249 287 8 2 5 12 324 305 26 358 342 339 335 332 324 305 302 288 304 327 345 340 315 339 312 267 287 293 340 323 317 263 192 285 305 306 300 282 264 257 258 260 250 251 246 244 243 239 232 222 226 237 245 254 259 270 279 278 255 285 310 299 308 308 301 298 296 290 285 277 265 239 234 236
216 135 158 311 301 273 250 252 322 347 344 316 99 276 330 6 357 349 307 248 245 283 2 327 329 319 313 305 295 284 295 326 321 305 306 298 283 297 301 288 295 301 306 313 260 285 288 279 285 286 290 286 279 261 256 257 253 246 253 249 243 226 234 226 230 225 224 239 251 258 266 260 282 148 240 238 243 252 255 258 261 263 268 266 250 234 234 237
64 302 115 151 283 259 274 301 37 59 340 234 188 334 9 321 315 343 325 259 237 339 337 323 311 302 290 294 287 285 308 307 301 296 285 272 258 264 255 257 269 265 287 285 286 285 234 298 303 301 285 275 280 275 274 284 266 247 236 240 232 229 228 236 240 239 232 220 240 242 250 265 267 225 239 248 232 237 239 240 244 251 258 257 246 236 239 244